GW0692 Weather Reports


Display with metric or nautical units.
time (UTC)temp
F
wind
direction
speed
MPH
gust
MPH
rain 1hr
in
rain 24hr
in
rain mn
in
humidity
%
barometer
mb
20260507120224 35 250 0.0 0.0 0.00 0.00 0.00 63 1022.3
20260507115720 33 250 0.0 0.0 0.00 0.00 0.00 75 1022.0
20260507115216 33 257 1.0 2.0 0.00 0.00 0.00 86 1022.2
20260507114711 33 239 1.0 2.0 0.00 0.00 0.00 86 1022.0
20260507114209 33 244 1.0 2.0 0.00 0.00 0.00 85 1022.0
20260507113706 33 254 2.0 2.0 0.00 0.00 0.00 84 1022.2
20260507113203 33 222 1.0 2.0 0.00 0.00 0.00 83 1022.0
20260507112701 34 213 0.0 2.0 0.00 0.00 0.00 81 1022.2
20260507112157 35 44 3.0 3.0 0.00 0.00 0.00 75 1022.2
20260507111655 35 248 0.0 0.0 0.00 0.00 0.00 67 1022.5
20260507111152 35 249 0.0 0.0 0.00 0.00 0.00 67 1022.2
20260507110647 35 252 0.0 0.0 0.00 0.00 0.00 71 1022.2
20260507110144 34 249 0.0 0.0 0.00 0.00 0.00 73 1022.3
20260507105641 34 251 0.0 0.0 0.00 0.00 0.00 78 1022.2
20260507105137 34 253 0.0 0.0 0.00 0.00 0.00 78 1022.2
20260507104634 34 251 2.0 3.0 0.00 0.00 0.00 80 1021.9
20260507104131 33 245 0.0 0.0 0.00 0.00 0.00 84 1022.2
20260507103627 33 248 1.0 2.0 0.00 0.00 0.00 91 1022.2
20260507103124 32 230 3.0 5.0 0.00 0.00 0.00 93 1022.2
20260507102621 31 260 2.0 2.0 0.00 0.00 0.00 94 1022.3
20260507102117 31 236 0.0 0.0 0.00 0.00 0.00 95 1022.3
20260507101613 31 244 2.0 2.0 0.00 0.00 0.00 95 1022.5
20260507101109 31 216 2.0 3.0 0.00 0.00 0.00 95 1022.0
20260507100606 32 79 3.0 3.0 0.00 0.00 0.00 94 1022.4
20260507100104 32 236 2.0 2.0 0.00 0.00 0.00 94 1022.2
20260507095602 32 196 0.0 0.0 0.00 0.00 0.00 93 1022.4
20260507095058 32 209 1.0 2.0 0.00 0.00 0.00 93 1022.3
20260507094553 32 249 0.0 0.0 0.00 0.00 0.00 93 1022.7
20260507094046 32 231 2.0 2.0 0.00 0.00 0.00 91 1022.5
20260507093543 32 248 0.0 0.0 0.00 0.00 0.00 89 1022.3
20260507093042 32 249 2.0 2.0 0.00 0.00 0.00 88 1022.7
20260507092537 33 261 0.0 2.0 0.00 0.00 0.00 89 1022.3
20260507092035 33 268 2.0 2.0 0.00 0.00 0.00 90 1022.4
20260507091531 33 218 2.0 2.0 0.00 0.00 0.00 91 1022.0
20260507091027 33 228 5.0 7.0 0.00 0.00 0.00 93 1022.2
20260507090523 33 238 3.0 3.0 0.00 0.00 0.00 94 1022.2
20260507090020 33 227 4.0 5.0 0.00 0.00 0.00 95 1022.4
20260507085518 33 235 4.0 5.0 0.00 0.00 0.00 95 1022.3
20260507085014 33 225 5.0 5.0 0.00 0.00 0.00 95 1022.2
20260507084511 33 244 4.0 7.0 0.00 0.00 0.00 94 1022.3
20260507084008 33 256 3.0 5.0 0.00 0.00 0.00 94 1021.8
20260507083504 33 227 5.0 9.0 0.00 0.00 0.00 93 1022.2
20260507083001 33 232 7.0 10.0 0.00 0.00 0.00 92 1022.2
20260507082457 33 129 5.0 7.0 0.00 0.00 0.00 92 1022.3
20260507081953 34 160 5.0 7.0 0.00 0.00 0.00 91 1022.3
20260507081450 34 239 4.0 5.0 0.00 0.00 0.00 90 1022.0
20260507080947 34 239 3.0 3.0 0.00 0.00 0.00 89 1022.3
20260507080442 34 220 8.0 12.0 0.00 0.00 0.00 87 1022.0
20260507075937 34 237 7.0 9.0 0.00 0.00 0.00 85 1022.0
20260507075434 34 188 3.0 7.0 0.00 0.00 0.00 84 1022.2
20260507074925 34 259 3.0 3.0 0.00 0.00 0.00 82 1022.2
20260507074422 35 154 2.0 7.0 0.00 0.00 0.00 76 1022.3
20260507073920 35 246 2.0 3.0 0.00 0.00 0.00 68 1022.3
20260507073416 34 195 5.0 7.0 0.00 0.00 0.00 61 1022.4
20260507072913 39 116 4.0 5.0 0.00 0.00 0.00 49 1022.2
20260507072411 40 291 2.0 2.0 0.00 0.00 0.00 45 1022.3
20260507071908 42 266 0.0 2.0 0.00 0.00 0.00 35 1021.9
20260507071405 42 262 0.0 0.0 0.00 0.00 0.00 37 1022.2
20260507070901 42 258 0.0 0.0 0.00 0.00 0.00 37 1022.0
20260507070359 41 265 1.0 2.0 0.00 0.00 0.00 42 1022.2
20260507065855 40 255 0.0 0.0 0.00 0.00 0.00 40 1022.0
20260507065352 43 99 2.0 3.0 0.00 0.00 0.00 37 1022.0
20260507064849 43 257 0.0 2.0 0.00 0.00 0.00 36 1022.0
20260507064347 42 257 0.0 2.0 0.00 0.00 0.00 39 1022.0
20260507063845 41 261 2.0 2.0 0.00 0.00 0.00 41 1021.9
20260507063342 41 249 0.0 0.0 0.00 0.00 0.00 42 1022.0
20260507062838 41 248 2.0 2.0 0.00 0.00 0.00 42 1021.9
20260507062335 41 259 1.0 2.0 0.00 0.00 0.00 43 1021.9
20260507061833 42 247 2.0 2.0 0.00 0.00 0.00 42 1022.0
20260507061331 42 241 2.0 2.0 0.00 0.00 0.00 41 1021.8
20260507060829 43 256 1.0 2.0 0.00 0.00 0.00 39 1021.7
20260507060326 43 253 5.0 7.0 0.00 0.00 0.00 37 1021.8
20260507055823 43 237 3.0 3.0 0.00 0.00 0.00 40 1021.9
20260507055318 43 265 3.0 3.0 0.00 0.00 0.00 41 1021.7
20260507054814 43 252 2.0 2.0 0.00 0.00 0.00 42 1021.4
20260507054310 43 245 3.0 3.0 0.00 0.00 0.00 42 1021.4
20260507053808 44 252 1.0 2.0 0.00 0.00 0.00 41 1021.5
20260507053306 44 244 2.0 2.0 0.00 0.00 0.00 40 1021.3
20260507052805 44 341 0.0 2.0 0.00 0.00 0.00 41 1021.7
20260507052301 44 257 3.0 5.0 0.00 0.00 0.00 42 1021.3
20260507051759 44 254 2.0 2.0 0.00 0.00 0.00 44 1021.7
20260507051255 45 256 2.0 2.0 0.00 0.00 0.00 44 1021.7
20260507050752 44 249 3.0 3.0 0.00 0.00 0.00 45 1021.7
20260507050249 44 263 2.0 2.0 0.00 0.00 0.00 46 1021.7
20260507045746 44 250 3.0 3.0 0.00 0.00 0.00 47 1021.8
20260507045242 45 234 1.0 2.0 0.00 0.00 0.00 47 1021.4
20260507044739 45 261 0.0 2.0 0.00 0.00 0.00 48 1021.4
20260507044236 45 254 2.0 2.0 0.00 0.00 0.00 49 1021.3
20260507043732 45 252 0.0 2.0 0.00 0.00 0.00 50 1021.5
20260507043229 45 246 0.0 0.0 0.00 0.00 0.00 51 1021.3
20260507042725 46 251 0.0 0.0 0.00 0.00 0.00 50 1021.2
20260507042220 46 249 0.0 0.0 0.00 0.00 0.00 50 1021.0
20260507041718 47 282 4.0 5.0 0.00 0.00 0.00 49 1021.0
20260507041214 47 243 3.0 5.0 0.00 0.00 0.00 49 1021.2
20260507040711 47 241 4.0 7.0 0.00 0.00 0.00 50 1020.9
20260507040208 47 239 3.0 3.0 0.00 0.00 0.00 51 1020.8
20260507035704 47 268 5.0 9.0 0.00 0.00 0.00 50 1020.8
20260507035159 47 242 2.0 3.0 0.00 0.00 0.00 50 1020.5
20260507034656 48 248 5.0 7.0 0.00 0.00 0.00 50 1020.2
20260507034154 48 242 3.0 3.0 0.00 0.00 0.00 50 1020.5
20260507033652 48 308 5.0 5.0 0.00 0.00 0.00 49 1020.2
20260507033149 48 242 6.0 9.0 0.00 0.00 0.00 49 1020.3
20260507032646 48 256 4.0 7.0 0.00 0.00 0.00 49 1020.3
20260507032142 48 273 6.0 7.0 0.00 0.00 0.00 49 1020.3
20260507031639 48 265 5.0 9.0 0.00 0.00 0.00 49 1020.0
20260507031135 48 270 3.0 5.0 0.00 0.00 0.00 49 1020.0
20260507030633 48 260 4.0 5.0 0.00 0.00 0.00 49 1019.8
20260507030131 48 255 4.0 5.0 0.00 0.00 0.00 50 1019.9
20260507025627 48 254 3.0 5.0 0.00 0.00 0.00 51 1019.5
20260507025124 48 250 3.0 3.0 0.00 0.00 0.00 52 1019.5
20260507024622 48 267 4.0 7.0 0.00 0.00 0.00 51 1019.8
20260507024119 47 244 2.0 3.0 0.00 0.00 0.00 53 1019.5
20260507023614 48 248 2.0 2.0 0.00 0.00 0.00 53 1019.7
20260507023112 48 254 2.0 2.0 0.00 0.00 0.00 52 1019.5
20260507022609 48 266 3.0 3.0 0.00 0.00 0.00 52 1019.3
20260507022104 48 320 3.0 5.0 0.00 0.00 0.00 51 1019.5
20260507021601 49 266 4.0 5.0 0.00 0.00 0.00 51 1019.0
20260507021057 49 73 2.0 2.0 0.00 0.00 0.00 51 1018.9
20260507020555 49 15 6.0 9.0 0.00 0.00 0.00 51 1018.8
20260507020045 49 253 1.0 2.0 0.00 0.00 0.00 51 1019.0
20260507015544 50 262 1.0 2.0 0.00 0.00 0.00 52 1018.9
20260507015041 49 271 3.0 3.0 0.00 0.00 0.00 52 1019.3
20260507014537 50 265 1.0 2.0 0.00 0.00 0.00 52 1018.8
20260507014033 50 264 3.0 3.0 0.00 0.00 0.00 53 1018.7
20260507013530 49 217 3.0 3.0 0.00 0.00 0.00 55 1018.7
20260507013027 49 272 2.0 2.0 0.00 0.00 0.00 56 1018.7
20260507012524 49 270 3.0 3.0 0.00 0.00 0.00 56 1018.3
20260507012020 49 251 3.0 3.0 0.00 0.00 0.00 56 1018.3
20260507011518 49 248 6.0 7.0 0.00 0.00 0.00 57 1018.4
20260507011014 49 225 2.0 2.0 0.00 0.00 0.00 58 1018.2
20260507010509 49 260 3.0 3.0 0.00 0.00 0.00 57 1018.2
20260507010005 49 175 5.0 9.0 0.00 0.00 0.00 58 1018.3
20260507005503 49 266 4.0 5.0 0.00 0.00 0.00 57 1018.2
20260507004959 50 268 0.0 2.0 0.00 0.00 0.00 55 1018.2
20260507004456 50 282 3.0 5.0 0.00 0.00 0.00 54 1017.9
20260507003954 51 290 7.0 9.0 0.00 0.00 0.00 52 1017.7
20260507003449 51 267 7.0 9.0 0.00 0.00 0.00 49 1017.8
20260507002944 52 345 7.0 10.0 0.00 0.00 0.00 46 1017.7
20260507002441 52 285 6.0 10.0 0.00 0.00 0.00 49 1017.4
20260507001937 53 339 11.0 17.0 0.00 0.00 0.00 46 1017.3
20260507001434 53 249 4.0 5.0 0.00 0.00 0.00 45 1017.0
20260507000932 53 310 3.0 5.0 0.00 0.00 0.00 45 1017.2
20260507000427 54 168 3.0 5.0 0.00 0.00 0.00 45 1016.8
20260506235923 54 262 4.0 5.0 0.00 0.00 0.00 46 1016.8
20260506235421 56 323 1.0 3.0 0.00 0.00 0.00 44 1016.9
20260506234915 56 50 7.0 9.0 0.00 0.00 0.00 44 1016.7
20260506234414 57 33 3.0 5.0 0.00 0.00 0.00 45 1016.3
20260506233911 57 43 3.0 7.0 0.00 0.00 0.00 44 1016.9
20260506233407 57 250 4.0 5.0 0.00 0.00 0.00 44 1016.8
20260506232904 57 314 3.0 5.0 0.00 0.00 0.00 44 1016.5
20260506232400 56 85 3.0 5.0 0.00 0.00 0.00 46 1016.4
20260506231856 56 27 4.0 9.0 0.00 0.00 0.00 46 1016.3
20260506231353 56 222 5.0 9.0 0.00 0.00 0.00 47 1016.4
20260506230846 56 298 7.0 9.0 0.00 0.00 0.00 46 1016.3
20260506230342 54 332 5.0 9.0 0.00 0.00 0.00 46 1016.2
20260506225838 55 232 8.0 12.0 0.00 0.00 0.00 42 1016.4
20260506225336 56 269 11.0 15.0 0.00 0.00 0.00 38 1015.7
20260506224833 55 241 8.0 12.0 0.00 0.00 0.00 39 1015.9
20260506224330 55 240 12.0 21.0 0.00 0.00 0.00 40 1015.7
20260506223826 55 232 12.0 15.0 0.00 0.00 0.00 39 1015.6
20260506223320 56 213 28.0 32.0 0.00 0.00 0.00 38 1015.3
20260506222819 57 290 9.0 12.0 0.00 0.00 0.00 36 1015.8
20260506222313 57 238 9.0 12.0 0.00 0.00 0.00 35 1015.6
20260506221807 59 273 11.0 14.0 0.00 0.00 0.00 33 1015.3
20260506221304 58 283 9.0 10.0 0.00 0.00 0.00 34 1015.2
20260506220801 59 245 12.0 15.0 0.00 0.00 0.00 33 1015.2
20260506220256 59 252 13.0 15.0 0.00 0.00 0.00 32 1015.3
20260506215753 61 223 13.0 22.0 0.00 0.00 0.00 31 1015.1
20260506215249 59 288 11.0 14.0 0.00 0.00 0.00 32 1015.3
20260506214745 60 230 9.0 10.0 0.00 0.00 0.00 33 1015.4
20260506214242 60 254 11.0 15.0 0.00 0.00 0.00 33 1015.3
20260506213741 60 229 5.0 7.0 0.00 0.00 0.00 33 1015.3
20260506213237 59 256 12.0 15.0 0.00 0.00 0.00 33 1015.3
20260506212735 58 247 11.0 15.0 0.00 0.00 0.00 35 1015.6
20260506212230 57 306 10.0 12.0 0.00 0.00 0.00 36 1015.6
20260506211726 56 284 7.0 9.0 0.00 0.00 0.00 38 1015.6
20260506211222 56 241 7.0 9.0 0.00 0.00 0.00 36 1015.6
20260506210719 54 247 7.0 9.0 0.00 0.00 0.00 44 1015.9
20260506210216 55 226 8.0 10.0 0.00 0.00 0.00 43 1015.9
20260506205713 56 216 8.0 10.0 0.00 0.00 0.00 38 1016.0
20260506205208 59 322 10.0 14.0 0.00 0.00 0.00 35 1015.7
20260506204706 60 277 9.0 12.0 0.00 0.00 0.00 35 1015.8
20260506204203 59 235 11.0 15.0 0.00 0.00 0.00 35 1015.7
20260506203701 59 221 6.0 9.0 0.00 0.00 0.00 37 1015.9
20260506203158 58 250 9.0 14.0 0.00 0.00 0.00 37 1015.8
20260506202655 56 275 9.0 12.0 0.00 0.00 0.00 39 1016.2
20260506202151 55 286 4.0 7.0 0.00 0.00 0.00 41 1016.0
20260506201649 55 259 10.0 14.0 0.00 0.00 0.00 41 1016.0
20260506201145 56 290 8.0 12.0 0.00 0.00 0.00 40 1015.8
20260506200642 56 217 6.0 9.0 0.00 0.00 0.00 41 1016.2
20260506200138 57 295 9.0 12.0 0.00 0.00 0.00 40 1016.2
20260506195635 55 299 9.0 10.0 0.00 0.00 0.00 41 1016.3
20260506195131 55 316 12.0 17.0 0.00 0.00 0.00 41 1016.2
20260506194629 57 279 12.0 21.0 0.00 0.00 0.00 41 1016.0
20260506194125 59 310 9.0 15.0 0.00 0.00 0.00 38 1016.2
20260506193623 58 345 7.0 12.0 0.00 0.00 0.00 39 1016.4
20260506193120 57 321 6.0 9.0 0.00 0.00 0.00 40 1016.0
20260506192617 57 306 11.0 15.0 0.00 0.00 0.00 40 1016.3
20260506192112 57 282 11.0 15.0 0.00 0.00 0.00 40 1016.2
20260506191609 56 260 6.0 9.0 0.00 0.00 0.00 41 1016.3
20260506191105 56 184 4.0 5.0 0.00 0.00 0.00 41 1016.5
20260506190603 56 224 12.0 17.0 0.00 0.00 0.00 42 1016.5
20260506190100 56 203 5.0 7.0 0.00 0.00 0.00 41 1016.4
20260506185557 55 249 8.0 10.0 0.00 0.00 0.00 42 1016.7
20260506185053 55 259 9.0 10.0 0.00 0.00 0.00 42 1016.7
20260506184550 55 280 7.0 9.0 0.00 0.00 0.00 42 1016.5
20260506184048 54 225 8.0 10.0 0.00 0.00 0.00 44 1016.2
20260506183544 53 235 11.0 15.0 0.00 0.00 0.00 43 1016.4
20260506183040 53 286 9.0 14.0 0.00 0.00 0.00 45 1016.3
20260506182538 53 268 11.0 14.0 0.00 0.00 0.00 45 1016.5
20260506182035 53 307 12.0 15.0 0.00 0.00 0.00 46 1016.7
20260506181533 52 296 9.0 14.0 0.00 0.00 0.00 47 1016.2
20260506181029 52 277 18.0 21.0 0.00 0.00 0.00 47 1016.5
20260506180526 53 264 7.0 9.0 0.00 0.00 0.00 47 1016.5
20260506180023 52 233 8.0 10.0 0.00 0.00 0.00 47 1016.5
20260506175519 53 254 10.0 12.0 0.00 0.00 0.00 46 1016.5
20260506175016 52 243 10.0 10.0 0.00 0.00 0.00 48 1016.8
20260506174514 51 242 11.0 14.0 0.00 0.00 0.00 48 1016.9
20260506174010 51 309 12.0 15.0 0.00 0.00 0.00 49 1016.7
20260506173508 52 212 11.0 14.0 0.00 0.00 0.00 48 1016.7
20260506173005 51 264 11.0 14.0 0.00 0.00 0.00 49 1016.8
20260506172502 50 226 6.0 9.0 0.00 0.00 0.00 51 1016.9
20260506171958 49 275 9.0 12.0 0.00 0.00 0.00 53 1016.8
20260506171455 51 224 8.0 12.0 0.00 0.00 0.00 51 1016.8
20260506170953 51 247 6.0 7.0 0.00 0.00 0.00 51 1016.7
20260506170449 50 229 13.0 17.0 0.00 0.00 0.00 51 1016.4
20260506165948 49 258 5.0 7.0 0.00 0.00 0.00 54 1016.5
20260506165446 50 285 9.0 10.0 0.00 0.00 0.00 53 1016.8
20260506164942 50 253 7.0 9.0 0.00 0.00 0.00 53 1016.5
20260506164439 50 258 7.0 10.0 0.00 0.00 0.00 53 1016.5
20260506163937 49 287 7.0 12.0 0.00 0.00 0.00 54 1016.7
20260506163431 48 244 8.0 12.0 0.00 0.00 0.00 56 1016.5
20260506162927 48 247 10.0 14.0 0.00 0.00 0.00 55 1016.3
20260506162425 48 266 9.0 15.0 0.00 0.00 0.00 56 1016.8
20260506161922 48 293 13.0 17.0 0.00 0.00 0.00 56 1016.7
20260506161420 47 264 7.0 10.0 0.00 0.00 0.00 58 1016.7
20260506160917 47 236 8.0 10.0 0.00 0.00 0.00 59 1016.5
20260506160414 46 266 5.0 5.0 0.00 0.00 0.00 59 1016.5
20260506155912 46 247 7.0 10.0 0.00 0.00 0.00 59 1016.8
20260506155409 46 248 4.0 7.0 0.00 0.00 0.00 60 1016.4
20260506153531 44 290 8.0 10.0 0.00 0.00 0.00 64 1016.2
20260506153028 44 294 7.0 14.0 0.00 0.00 0.00 64 1016.2
20260506152525 44 273 12.0 19.0 0.00 0.00 0.00 63 1016.2
20260506152023 44 261 9.0 12.0 0.00 0.00 0.00 65 1016.0
20260506151521 44 255 12.0 17.0 0.00 0.00 0.00 65 1016.5
20260506151018 43 261 7.0 10.0 0.00 0.00 0.00 67 1016.5
20260506150514 43 213 6.0 9.0 0.00 0.00 0.00 67 1016.5
20260506150011 44 244 6.0 10.0 0.00 0.00 0.00 67 1016.8
20260506145507 43 261 6.0 7.0 0.00 0.00 0.00 67 1016.9
20260506145005 42 251 8.0 12.0 0.00 0.00 0.00 69 1016.7
20260506144502 42 280 7.0 9.0 0.00 0.00 0.00 69 1016.4
20260506143959 42 319 5.0 7.0 0.00 0.00 0.00 69 1016.5
20260506143456 42 302 7.0 9.0 0.00 0.00 0.00 70 1016.3
20260506142955 41 255 8.0 12.0 0.00 0.00 0.00 70 1016.2
20260506142452 41 283 13.0 15.0 0.00 0.00 0.00 71 1016.0
20260506141950 41 274 10.0 12.0 0.00 0.00 0.00 72 1016.0
20260506141448 41 231 12.0 15.0 0.00 0.00 0.00 72 1015.6
20260506140946 41 286 8.0 10.0 0.00 0.00 0.00 73 1015.9
20260506140443 40 302 13.0 21.0 0.00 0.00 0.00 74 1015.9
20260506135939 40 248 13.0 19.0 0.00 0.00 0.00 75 1015.8
20260506135437 40 264 9.0 12.0 0.00 0.00 0.00 76 1016.0
20260506134933 40 253 8.0 12.0 0.00 0.00 0.00 77 1015.7
20260506134429 39 227 9.0 14.0 0.00 0.00 0.00 78 1016.0
20260506133926 39 214 11.0 15.0 0.00 0.00 0.00 79 1016.0
20260506133423 39 265 10.0 12.0 0.00 0.00 0.00 79 1016.0
20260506132920 39 307 8.0 12.0 0.00 0.00 0.00 80 1015.7
20260506132417 38 302 7.0 10.0 0.00 0.00 0.00 80 1015.7
20260506131914 38 316 8.0 15.0 0.00 0.00 0.00 80 1016.0
20260506131410 38 261 10.0 17.0 0.00 0.00 0.00 82 1015.3
20260506130908 38 243 7.0 10.0 0.00 0.00 0.00 83 1015.7
20260506130404 37 252 6.0 9.0 0.00 0.00 0.00 84 1015.8
20260506125902 37 252 4.0 5.0 0.00 0.00 0.00 84 1016.2
20260506125400 37 269 3.0 3.0 0.00 0.00 0.00 83 1015.8
20260506124858 37 278 5.0 7.0 0.00 0.00 0.00 82 1015.6
20260506124355 37 280 8.0 10.0 0.00 0.00 0.00 83 1015.1
20260506123853 37 316 9.0 12.0 0.00 0.00 0.00 83 1015.1
20260506123351 37 241 9.0 10.0 0.00 0.00 0.00 83 1015.1
20260506122848 37 234 7.0 14.0 0.00 0.00 0.00 84 1015.2
20260506122344 36 282 7.0 10.0 0.00 0.00 0.00 85 1015.2
20260506121843 36 252 12.0 19.0 0.00 0.00 0.00 86 1015.1
20260506121340 36 270 7.0 10.0 0.00 0.00 0.00 86 1015.1
20260506120837 36 261 11.0 14.0 0.00 0.00 0.00 86 1015.1